EW1107 Weather Reports


Display with metric or nautical units.
time (UTC)temp
F
wind
direction
speed
MPH
gust
MPH
rain 1hr
in
rain 24hr
in
rain mn
in
humidity
%
barometer
mb
20260906101041 59 271 11.0 44.0 0.00 0.17 0.00 78 1021.9
20260906100541 59 271 20.0 44.0 0.00 0.17 0.00 78 1021.8
20260906100040 59 310 10.0 37.0 0.00 0.17 0.00 79 1021.8
20260906095038 59 265 15.0 37.0 0.00 0.17 0.00 79 1021.6
20260906094538 59 316 12.0 31.0 0.00 0.17 0.00 80 1021.6
20260906094038 59 260 8.0 28.0 0.00 0.17 0.00 79 1021.5
20260906093537 59 276 14.0 31.0 0.00 0.17 0.00 79 1021.5
20260906093048 59 306 14.0 31.0 0.00 0.17 0.00 79 1021.4
20260906092536 59 273 19.0 30.0 0.00 0.17 0.00 79 1021.3
20260906092038 59 313 15.0 28.0 0.00 0.17 0.00 80 1021.3
20260906091534 58 313 10.0 30.0 0.00 0.17 0.00 81 1021.3
20260906091037 58 324 14.0 30.0 0.00 0.17 0.00 80 1021.3
20260906090536 59 287 15.0 29.0 0.00 0.17 0.00 81 1021.3
20260906090133 59 261 9.0 37.0 0.00 0.17 0.00 80 1021.2
20260906085536 59 323 19.0 37.0 0.00 0.17 0.00 79 1021.1
20260906085031 59 267 10.0 25.0 0.00 0.17 0.00 80 1021.0
20260906084533 59 252 14.0 33.0 0.00 0.17 0.00 80 1020.9
20260906084030 59 287 13.0 33.0 0.00 0.17 0.00 80 1021.0
20260906083529 59 285 14.0 36.0 0.00 0.17 0.00 81 1020.8
20260906083028 58 239 12.0 40.0 0.00 0.17 0.00 82 1020.9
20260906082528 58 290 22.0 40.0 0.00 0.17 0.00 81 1020.8
20260906082028 58 281 19.0 35.0 0.00 0.17 0.00 81 1020.8
20260906081530 58 277 13.0 44.0 0.00 0.17 0.00 82 1020.7
20260906081026 58 281 15.0 33.0 0.00 0.17 0.00 81 1020.7
20260906080526 58 302 17.0 37.0 0.00 0.17 0.00 81 1020.6
20260906080026 58 267 14.0 37.0 0.00 0.17 0.00 81 1020.5
20260906075524 58 271 12.0 40.0 0.00 0.17 0.00 82 1020.4
20260906074522 57 281 13.0 28.0 0.00 0.17 0.00 83 1020.3
20260906074020 57 286 14.0 35.0 0.00 0.17 0.00 85 1020.3
20260906073520 56 287 10.0 35.0 0.00 0.17 0.00 85 1020.1
20260906073017 56 286 12.0 31.0 0.00 0.17 0.00 85 1020.1
20260906072519 56 321 10.0 30.0 0.00 0.17 0.00 85 1020.1
20260906072021 56 269 9.0 30.0 0.00 0.17 0.00 85 1020.2
20260906071517 56 273 10.0 31.0 0.00 0.17 0.00 85 1020.1
20260906071016 56 288 12.0 28.0 0.00 0.17 0.00 85 1020.1
20260906070517 56 235 9.0 24.0 0.00 0.17 0.00 85 1020.0
20260906070017 56 236 10.0 27.0 0.00 0.17 0.00 85 1019.9
20260906065515 56 250 15.0 30.0 0.00 0.17 0.00 85 1019.8
20260906065014 56 290 15.0 30.0 0.00 0.17 0.00 85 1019.8
20260906064517 56 265 13.0 33.0 0.00 0.17 0.00 85 1019.7
20260906064012 56 291 11.0 27.0 0.00 0.17 0.00 85 1019.7
20260906063511 56 290 12.0 32.0 0.00 0.17 0.00 85 1019.5
20260906063011 56 279 16.0 40.0 0.00 0.17 0.00 85 1019.4
20260906062510 56 348 9.0 30.0 0.00 0.17 0.00 85 1019.4
20260906062011 56 259 16.0 31.0 0.00 0.17 0.00 85 1019.3
20260906061509 56 284 17.0 29.0 0.00 0.17 0.00 85 1019.3
20260906061008 56 276 7.0 29.0 0.00 0.17 0.00 85 1019.2
20260906060510 56 308 10.0 25.0 0.00 0.17 0.00 85 1019.1
20260906060008 56 268 10.0 34.0 0.00 0.17 0.00 85 1019.0
20260906055506 55 282 10.0 34.0 0.00 0.17 0.00 85 1019.0
20260906055005 55 259 10.0 35.0 0.00 0.17 0.00 85 1018.9
20260906054504 55 296 13.0 29.0 0.00 0.17 0.00 85 1018.9
20260906054004 55 213 8.0 26.0 0.00 0.17 0.00 85 1018.8
20260906053504 55 293 10.0 31.0 0.00 0.17 0.00 85 1018.7
20260906053008 55 292 15.0 32.0 0.00 0.17 0.00 85 1018.7
20260906052502 55 251 11.0 34.0 0.00 0.17 0.00 85 1018.6
20260906052001 55 314 13.0 36.0 0.00 0.17 0.00 86 1018.6
20260906051603 55 284 17.0 36.0 0.00 0.17 0.00 86 1018.6
20260906051100 55 306 11.0 34.0 0.00 0.17 0.00 86 1018.6
20260906050559 55 297 14.0 34.0 0.00 0.17 0.00 86 1018.6
20260906050059 55 346 13.0 36.0 0.00 0.17 0.00 86 1018.6
20260906045558 55 281 13.0 36.0 0.00 0.17 0.00 86 1018.5
20260906045057 55 312 17.0 35.0 0.00 0.17 0.00 86 1018.5
20260906044555 55 287 9.0 27.0 0.00 0.17 0.00 86 1018.5
20260906044054 55 281 16.0 28.0 0.00 0.17 0.00 87 1018.4
20260906043553 55 282 15.0 30.0 0.00 0.17 0.00 87 1018.3
20260906043054 55 301 14.0 30.0 0.00 0.17 0.00 87 1018.3
20260906042550 55 298 8.0 32.0 0.00 0.17 0.00 87 1018.3
20260906042050 55 284 12.0 37.0 0.00 0.17 0.00 87 1018.2
20260906041550 55 299 18.0 37.0 0.00 0.17 0.00 87 1018.2
20260906041052 55 306 13.0 23.0 0.00 0.17 0.00 87 1018.0
20260906040548 55 280 14.0 26.0 0.00 0.17 0.00 87 1017.9
20260906040050 55 306 9.0 24.0 0.00 0.17 0.00 87 1017.8
20260906035546 55 285 11.0 29.0 0.00 0.17 0.00 87 1017.8
20260906035046 55 314 14.0 25.0 0.00 0.17 0.00 87 1017.8
20260906034546 55 286 13.0 25.0 0.00 0.17 0.00 87 1017.8
20260906033548 55 300 16.0 30.0 0.00 0.17 0.00 88 1017.7
20260906033045 55 276 15.0 40.0 0.00 0.17 0.00 88 1017.6
20260906032542 55 298 14.0 40.0 0.00 0.17 0.00 88 1017.5
20260906032042 55 272 8.0 34.0 0.00 0.17 0.00 88 1017.5
20260906031541 55 254 11.0 32.0 0.00 0.17 0.00 88 1017.4
20260906031039 55 286 9.0 31.0 0.00 0.17 0.00 88 1017.4
20260906030539 55 266 12.0 29.0 0.00 0.17 0.00 88 1017.3
20260906030039 55 298 14.0 29.0 0.00 0.17 0.00 89 1017.3
20260906025538 55 277 10.0 25.0 0.00 0.17 0.00 89 1017.3
20260906025038 55 281 9.0 29.0 0.00 0.17 0.00 89 1017.3
20260906024536 55 267 15.0 29.0 0.00 0.17 0.00 89 1017.2
20260906024036 55 242 9.0 23.0 0.00 0.17 0.00 89 1017.3
20260906023537 55 226 6.0 23.0 0.00 0.17 0.00 90 1017.2
20260906023043 55 275 9.0 31.0 0.00 0.17 0.00 90 1017.2
20260906022537 55 263 14.0 31.0 0.00 0.17 0.00 90 1017.1
20260906022040 55 242 9.0 25.0 0.00 0.17 0.00 90 1017.1
20260906021534 55 270 10.0 32.0 0.00 0.17 0.00 90 1017.0
20260906021033 55 266 7.0 32.0 0.00 0.17 0.00 91 1017.1
20260906020533 55 261 9.0 23.0 0.00 0.17 0.00 91 1017.0
20260906020034 55 273 8.0 21.0 0.00 0.17 0.00 91 1017.1
20260906015535 55 276 12.0 21.0 0.00 0.17 0.00 91 1017.1
20260906015032 55 275 9.0 29.0 0.00 0.17 0.00 91 1017.1
20260906014535 55 296 5.0 21.0 0.00 0.17 0.00 91 1017.0
20260906014036 55 272 8.0 24.0 0.00 0.17 0.00 91 1016.9
20260906013531 55 281 6.0 29.0 0.00 0.17 0.00 91 1016.9
20260906013030 55 228 16.0 35.0 0.00 0.17 0.00 91 1016.9
20260906012529 55 309 10.0 35.0 0.00 0.17 0.00 91 1016.9
20260906012033 55 264 9.0 21.0 0.00 0.17 0.00 91 1016.9
20260906011529 55 313 8.0 21.0 0.00 0.17 0.00 91 1016.8
20260906011029 55 264 8.0 24.0 0.00 0.17 0.00 91 1016.8
20260906010528 55 229 11.0 28.0 0.00 0.17 0.00 91 1016.8
20260906010028 55 254 9.0 28.0 0.00 0.18 0.00 91 1016.7
20260906005528 55 271 9.0 20.0 0.00 0.18 0.00 91 1016.8
20260906005032 55 212 9.0 19.0 0.00 0.18 0.00 91 1016.8
20260906004527 55 296 9.0 28.0 0.00 0.18 0.00 91 1016.8
20260906004027 55 301 9.0 28.0 0.00 0.18 0.00 91 1016.8
20260906003626 55 278 8.0 29.0 0.00 0.18 0.00 91 1016.7
20260906003026 55 274 13.0 23.0 0.00 0.18 0.00 91 1016.7
20260906002525 56 279 8.0 29.0 0.00 0.18 0.00 91 1016.7
20260906002024 56 270 10.0 29.0 0.00 0.18 0.00 91 1016.7
20260906001523 55 302 13.0 26.0 0.00 0.18 0.00 91 1016.6
20260906001022 55 284 12.0 24.0 0.00 0.18 0.00 91 1016.6
20260906000528 55 292 10.0 26.0 0.00 0.18 0.00 91 1016.6
20260906000022 55 299 10.0 24.0 0.00 0.18 0.00 91 1016.6
20260905235523 55 296 7.0 29.0 0.00 0.18 0.00 91 1016.6
20260905235021 56 288 8.0 37.0 0.00 0.18 0.00 91 1016.6
20260905234520 55 307 18.0 37.0 0.00 0.18 0.00 91 1016.5
20260905234023 56 323 10.0 26.0 0.00 0.18 0.00 92 1016.7
20260905233519 55 295 13.0 27.0 0.00 0.18 0.00 92 1016.6
20260905233018 56 236 13.0 34.0 0.00 0.18 0.00 92 1016.6
20260905232517 55 281 12.0 33.0 0.00 0.18 0.00 92 1016.5
20260905232016 55 294 15.0 33.0 0.00 0.18 0.00 93 1016.5
20260905231516 55 325 13.0 30.0 0.00 0.18 0.00 93 1016.4
20260905231015 55 220 14.0 30.0 0.00 0.18 0.00 93 1016.4
20260905230515 55 261 14.0 29.0 0.00 0.18 0.00 93 1016.4
20260905230015 55 234 10.0 25.0 0.00 0.19 0.00 93 1016.3
20260905225514 55 273 9.0 21.0 0.00 0.19 0.00 93 1016.4
20260905225013 55 283 9.0 19.0 0.00 0.19 0.00 93 1016.3
20260905224518 55 276 6.0 24.0 0.00 0.19 0.00 93 1016.3
20260905224014 55 314 9.0 25.0 0.00 0.19 0.00 93 1016.3
20260905223512 55 315 7.0 18.0 0.00 0.19 0.00 93 1016.4
20260905223112 55 285 6.0 21.0 0.00 0.19 0.00 93 1016.3
20260905222515 55 272 11.0 21.0 0.00 0.19 0.00 93 1016.3
20260905222011 55 284 8.0 28.0 0.00 0.19 0.00 93 1016.3
20260905221528 55 313 11.0 28.0 0.00 0.19 0.00 93 1016.3
20260905221011 55 302 12.0 28.0 0.00 0.19 0.00 93 1016.3
20260905220510 55 293 10.0 25.0 0.00 0.19 0.00 93 1016.3
20260905220009 55 310 14.0 22.0 0.00 0.19 0.19 94 1016.3
20260905215508 55 286 12.0 25.0 0.00 0.19 0.19 94 1016.2
20260905215007 55 281 9.0 27.0 0.00 0.19 0.19 94 1016.1
20260905214506 55 263 9.0 27.0 0.00 0.19 0.19 94 1016.1
20260905214005 55 283 10.0 22.0 0.00 0.19 0.19 94 1016.1
20260905213505 55 261 11.0 22.0 0.00 0.19 0.19 94 1016.0
20260905213005 55 222 9.0 21.0 0.00 0.19 0.19 94 1016.0
20260905212504 55 229 7.0 19.0 0.00 0.19 0.19 94 1016.0
20260905212003 55 273 7.0 21.0 0.00 0.19 0.19 94 1016.0
20260905211503 55 294 5.0 21.0 0.00 0.19 0.19 94 1015.9
20260905211002 55 276 7.0 17.0 0.00 0.19 0.19 93 1015.8
20260905210502 55 261 6.0 17.0 0.00 0.19 0.19 93 1015.7
20260905210000 55 260 7.0 17.0 0.00 0.19 0.19 93 1015.7
20260905205601 55 225 6.0 19.0 0.00 0.19 0.19 93 1015.6
20260905205059 55 273 6.0 19.0 0.00 0.19 0.19 93 1015.7
20260905204559 55 260 7.0 17.0 0.00 0.19 0.19 93 1015.7
20260905204058 55 281 6.0 17.0 0.00 0.19 0.19 93 1015.6
20260905203601 55 274 6.0 15.0 0.00 0.19 0.19 92 1015.5
20260905203059 55 263 4.0 17.0 0.00 0.19 0.19 92 1015.6
20260905202659 55 188 3.0 17.0 0.00 0.19 0.19 92 1015.5
20260905202058 55 259 3.0 15.0 0.00 0.19 0.19 92 1015.4
20260905201608 55 277 5.0 15.0 0.00 0.19 0.19 92 1015.5
20260905201056 55 260 5.0 14.0 0.00 0.19 0.19 92 1015.4
20260905200555 55 290 5.0 17.0 0.00 0.19 0.19 92 1015.2
20260905200058 55 261 4.0 17.0 0.00 0.34 0.19 92 1015.2
20260905195556 55 254 8.0 19.0 0.01 0.34 0.19 92 1015.2
20260905195055 55 264 8.0 23.0 0.01 0.34 0.19 92 1015.2
20260905194555 55 248 9.0 23.0 0.01 0.34 0.19 92 1015.2
20260905194057 55 261 5.0 15.0 0.02 0.34 0.19 92 1015.2
20260905193556 55 226 4.0 15.0 0.03 0.34 0.19 91 1015.3
20260905193054 55 268 5.0 14.0 0.03 0.34 0.19 91 1015.2
20260905192554 55 265 4.0 20.0 0.03 0.34 0.19 91 1015.2
20260905192054 55 242 9.0 18.0 0.03 0.34 0.19 91 1015.1
20260905191557 55 285 3.0 17.0 0.03 0.34 0.19 91 1014.9
20260905191053 55 253 4.0 17.0 0.03 0.34 0.19 90 1014.9
20260905190553 55 217 6.0 15.0 0.03 0.34 0.19 90 1014.9
20260905190105 56 260 3.0 15.0 0.03 0.34 0.19 90 1015.0
20260905185551 56 288 8.0 23.0 0.02 0.33 0.18 89 1015.1
20260905185049 56 271 8.0 32.0 0.02 0.33 0.18 89 1015.3
20260905184605 56 232 13.0 32.0 0.02 0.32 0.17 87 1015.3
20260905184049 57 300 11.0 40.0 0.01 0.31 0.17 87 1015.4
20260905183549 57 275 24.0 41.0 0.00 0.31 0.16 86 1015.4
20260905183048 57 275 16.0 64.0 0.00 0.31 0.16 87 1015.4
20260905182547 57 290 25.0 64.0 0.00 0.31 0.16 88 1015.2
20260905181545 57 225 6.0 11.0 0.01 0.31 0.16 92 1015.0
20260905181044 57 227 4.0 11.0 0.01 0.31 0.16 92 1014.5
20260905180544 57 210 2.0 9.0 0.01 0.31 0.16 92 1014.6
20260905180044 57 219 4.0 9.0 0.01 0.31 0.16 92 1014.6
20260905175546 57 232 2.0 11.0 0.01 0.31 0.16 92 1014.7
20260905175044 57 265 3.0 15.0 0.01 0.31 0.16 91 1014.6
20260905174550 57 272 5.0 16.0 0.01 0.31 0.16 91 1014.5
20260905174042 57 258 6.0 28.0 0.01 0.31 0.16 91 1014.7
20260905173541 57 275 6.0 30.0 0.01 0.31 0.16 91 1014.6
20260905173041 57 279 11.0 32.0 0.01 0.31 0.16 91 1014.7
20260905172540 57 267 15.0 32.0 0.01 0.31 0.16 91 1014.6
20260905172039 57 285 13.0 32.0 0.01 0.30 0.15 91 1014.7
20260905171539 58 234 4.0 11.0 0.02 0.30 0.15 91 1014.5
20260905171038 58 233 1.0 4.0 0.06 0.30 0.15 91 1014.2
20260905170540 58 240 0.0 0.0 0.12 0.30 0.15 91 1014.1
20260905170040 58 277 0.0 4.0 0.13 0.30 0.15 91 1014.1
20260905165537 58 277 0.0 5.0 0.13 0.30 0.15 90 1014.0
20260905165036 58 290 0.0 5.0 0.13 0.30 0.15 91 1014.0
20260905164536 58 279 0.0 3.0 0.13 0.30 0.15 90 1014.0
20260905164035 58 279 0.0 4.0 0.13 0.30 0.15 90 1014.1
20260905163536 58 279 0.0 11.0 0.13 0.30 0.15 90 1014.1
20260905163036 58 282 3.0 16.0 0.13 0.30 0.15 89 1014.1
20260905162535 59 292 5.0 17.0 0.13 0.30 0.15 89 1014.2
20260905162035 59 259 9.0 31.0 0.13 0.28 0.14 88 1014.7
20260905161031 61 245 11.0 19.0 0.07 0.24 0.09 84 1014.7
20260905160530 62 291 6.0 12.0 0.02 0.18 0.03 82 1014.1
20260905160031 62 240 0.0 8.0 0.00 0.17 0.02 80 1013.5
20260905155531 63 236 1.0 8.0 0.00 0.17 0.02 78 1013.5
20260905155029 63 229 0.0 4.0 0.00 0.17 0.02 77 1013.4
20260905154529 63 294 0.0 7.0 0.00 0.17 0.02 77 1013.5
20260905154030 63 294 1.0 7.0 0.00 0.17 0.02 77 1013.3
20260905153529 63 294 0.0 7.0 0.00 0.17 0.02 79 1013.3
20260905153029 62 339 1.0 11.0 0.00 0.17 0.02 79 1013.5
20260905152529 62 295 0.0 11.0 0.00 0.17 0.02 78 1013.5
20260905152028 63 298 4.0 11.0 0.00 0.17 0.02 76 1013.4
20260905151529 63 296 4.0 11.0 0.00 0.17 0.02 75 1013.5
20260905151036 63 294 3.0 13.0 0.00 0.17 0.02 73 1013.5
20260905150528 64 16 4.0 18.0 0.00 0.17 0.02 72 1013.5
20260905150028 64 286 7.0 18.0 0.00 0.17 0.02 71 1013.3
20260905145528 65 360 9.0 17.0 0.00 0.17 0.02 70 1013.3
20260905145028 65 28 4.0 15.0 0.00 0.17 0.02 71 1013.3
20260905144528 63 298 7.0 15.0 0.00 0.17 0.02 74 1013.3
20260905144027 62 351 6.0 22.0 0.00 0.17 0.02 74 1013.3
20260905143527 62 340 8.0 22.0 0.00 0.17 0.02 73 1013.4
20260905143030 62 293 10.0 23.0 0.00 0.17 0.02 74 1013.4
20260905142526 62 312 13.0 35.0 0.00 0.17 0.02 73 1013.4
20260905142028 62 360 13.0 47.0 0.00 0.17 0.02 72 1013.6
20260905141529 64 269 21.0 47.0 0.00 0.17 0.02 67 1013.6
20260905141025 67 320 17.0 45.0 0.00 0.17 0.02 61 1013.5
20260905140525 69 293 14.0 26.0 0.00 0.17 0.02 58 1013.0
20260905140025 70 285 7.0 22.0 0.00 0.17 0.02 58 1013.0
20260905135525 70 269 11.0 47.0 0.00 0.17 0.02 57 1012.9
20260905135024 70 300 22.0 47.0 0.00 0.17 0.02 57 1012.9
20260905134526 70 240 15.0 31.0 0.00 0.17 0.02 57 1012.9
20260905134024 70 261 12.0 32.0 0.00 0.17 0.02 59 1012.9
20260905133524 69 278 20.0 32.0 0.00 0.17 0.02 58 1012.9
20260905133024 70 303 14.0 38.0 0.00 0.17 0.02 58 1012.9
20260905132523 70 217 16.0 38.0 0.00 0.17 0.02 58 1013.0
20260905132022 69 236 17.0 30.0 0.00 0.17 0.02 57 1013.0
20260905131541 69 298 13.0 30.0 0.00 0.17 0.02 58 1013.1
20260905131121 69 259 17.0 40.0 0.00 0.17 0.02 58 1013.0
20260905130522 69 291 22.0 40.0 0.00 0.17 0.02 57 1013.0
20260905130128 69 259 17.0 39.0 0.00 0.17 0.02 57 1013.0
20260905125520 69 177 14.0 39.0 0.00 0.17 0.02 58 1013.0
20260905125021 68 248 13.0 39.0 0.00 0.17 0.02 58 1013.0
20260905124536 68 286 16.0 40.0 0.00 0.17 0.02 56 1013.1
20260905124020 69 289 21.0 46.0 0.00 0.17 0.02 54 1013.0
20260905123520 69 338 15.0 46.0 0.00 0.17 0.02 56 1013.0
20260905123020 69 273 10.0 34.0 0.00 0.17 0.02 58 1013.1
20260905122520 67 323 16.0 35.0 0.00 0.17 0.02 59 1013.2
20260905122020 67 303 17.0 37.0 0.00 0.17 0.02 58 1013.2
20260905121524 68 292 13.0 43.0 0.00 0.17 0.02 57 1013.2
20260905121021 69 225 17.0 37.0 0.00 0.17 0.02 56 1013.2
20260905120522 68 284 16.0 32.0 0.00 0.17 0.02 58 1013.2
20260905120019 67 298 14.0 42.0 0.00 0.17 0.02 59 1013.3
20260905115517 68 312 16.0 49.0 0.00 0.17 0.02 56 1013.3
20260905115020 69 215 16.0 49.0 0.00 0.17 0.02 56 1013.2
20260905114534 68 273 13.0 41.0 0.00 0.17 0.02 59 1013.2
20260905114016 68 261 15.0 41.0 0.00 0.17 0.02 59 1013.1
20260905113515 68 271 19.0 42.0 0.00 0.17 0.02 59 1013.2
20260905113014 69 297 17.0 35.0 0.00 0.17 0.02 58 1013.2
20260905112515 68 303 18.0 46.0 0.00 0.17 0.02 58 1013.2
20260905112016 68 244 18.0 46.0 0.00 0.17 0.02 57 1013.1
20260905111516 68 238 20.0 44.0 0.00 0.17 0.02 58 1013.1
20260905111013 68 315 22.0 50.0 0.00 0.17 0.02 57 1013.1
20260905110616 68 230 16.0 50.0 0.00 0.17 0.02 58 1013.0
20260905110012 68 288 23.0 50.0 0.00 0.17 0.02 60 1013.1
20260905105511 68 301 15.0 52.0 0.00 0.17 0.02 60 1013.1
20260905105011 67 239 22.0 52.0 0.00 0.17 0.02 61 1013.0
20260905104511 68 326 20.0 47.0 0.00 0.17 0.02 58 1013.1
20260905104010 67 275 23.0 47.0 0.00 0.17 0.02 58 1013.0
20260905103512 68 192 18.0 46.0 0.00 0.17 0.02 59 1013.0
20260905103023 67 300 25.0 46.0 0.00 0.17 0.02 59 1013.0
20260905102509 68 319 14.0 44.0 0.00 0.17 0.02 61 1012.9
20260905102008 67 303 19.0 42.0 0.00 0.17 0.02 62 1012.9
20260905101515 66 289 14.0 49.0 0.00 0.17 0.02 64 1013.0